Regional Weather Roundup
Issued by NWS Sioux Falls, SD

Home | Current Version | Previous Version | Text Only | Print | Product List | Glossary On
Versions: 1 2 3 4 5 6 7 8 9 10 11 12 13 14 15 16 17 18 19 20 21 22 23 24 25 26 27 28 29 30 31 32 33 34 35 36 37 38 39 40 41 42 43 44 45 46 47 48 49 50
000
ASUS43 KFSD 102310
RWRFSD

WEATHER ROUNDUP FOR SE SOUTH DAKOTA/SW MINNESOTA/NW IOWA
NATIONAL WEATHER SERVICE SIOUX FALLS SD
500 PM CST SUN DEC 10 2017

NOTE: "FAIR" INDICATES FEW OR NO CLOUDS BELOW 12,000 FEET WITH NO
SIGNIFICANT WEATHER AND OR OBSTRUCTIONS TO VISIBILITY.


SDZ038>040-050-052>070-110000-
SOUTHEAST SOUTH DAKOTA

CITY           SKY/WX    TMP DP  RH WIND       PRES   REMARKS
BROOKINGS      CLOUDY    36  28  73 CALM      30.04S
CHAMBERLAIN    CLEAR     50  26  38 N5        30.07S
HURON          CLOUDY    37  29  72 NW9       30.05S
MADISON        FAIR      36  32  87 W7        30.05S
MITCHELL       CLEAR     40  29  64 NW5       30.07S
SIOUX FALLS    MOCLDY    38  29  70 W5        30.06S
WINNER         FAIR      54  18  24 W10       30.07F
YANKTON        CLEAR     44  26  49 W3        30.09R
$$

MNZ071-072-080-081-089-090-097-098-110000-
SOUTHWEST MINNESOTA

CITY           SKY/WX    TMP DP  RH WIND       PRES   REMARKS
FAIRMONT       MOCLDY    33  25  72 NW6       30.06R WCI  28
JACKSON        CLOUDY    34  27  75 MISG      30.06R
LUVERNE        CLEAR     36  28  75 NW6       30.06R
MARSHALL       CLOUDY    35  25  66 CALM      30.05S
MONTEVIDEO     CLOUDY    34  25  69 CALM      30.04F
PIPESTONE      PTCLDY    36  27  69 NW8       30.03F
REDWOOD FALLS  CLOUDY    34  23  64 NW8       30.05R WCI  27
TRACY          CLOUDY    36  28  75 CALM      30.05R
WINDOM           N/A     36  21  55 NW5       30.04S
WORTHINGTON    CLOUDY    36  28  73 W7        30.05R
$$

IAZ001>003-012>014-020>022-031-032-NEZ013-014-SDZ071-110000-
NORTHWEST IOWA

CITY           SKY/WX    TMP DP  RH WIND       PRES   REMARKS
CHEROKEE       CLEAR     38  27  65 CALM      30.08R
DENISON        CLEAR     43  25  49 W7        30.10R
ESTHERVILLE    MOCLDY    32  27  81 NW8       30.06R WCI  25
LE MARS        CLEAR     39  28  65 W6        30.09R
ORANGE CITY    CLEAR     36  30  80 W6        30.07S
SHELDON        CLEAR     36  30  80 W7        30.05S
SIOUX CITY     CLEAR     40  25  55 NW6       30.09R
SPENCER        CLOUDY    37  28  70 W9        30.07R
STORM LAKE     PTCLDY    37  27  65 MISG      30.06R
$$

ABBREVIATIONS USED IN REMARKS
   TC - TEMPERATURE IN CELSIUS
  WCI - WIND CHILL INDEX
   HX - HEAT INDEX
  VSB - VISIBILITY





USA.gov is the U.S. government's official web portal to all federal, state and local government web resources and services.